Location: Brno
(49.2000°N, 16.6330°E)
Time: 21:01:13
(UTC+02:00)

X-37B - Pass Details

Date: 14 June 2021
Orbit: 383 x 392 km, 45.0° (Epoch: 01 July)

Event Time Altitude Azimuth Distance (km) Brightness Sun altitude
Exits shadow 03:28:06 15° 217° (SW) 1,136 2.3 -9.8°
Maximum altitude 03:30:03 28° 165° (SSE) 765 1.7 -9.6°
Drops below altitude 10° 03:32:50 10° 104° (ESE) 1,411 3.7 -9.3°
Sets 03:35:04 0° 92° (E) 2,268 5.0 -9.1°
